Retour au catalogue

STARLINK-30515

ActifCommunicationsVLEO
NORAD 57983·PAYLOAD·🇺🇸 United States

Lancé Sep 30, 2023 depuis Cape Canaveral Space Force Station

Loading…

Prochains Passages (prochaines 24 heures)

TLE

FraisSource: CelesTrak SupGP

Époque: Sep 15, 2026, 02:20 UTC

1 57983C 23151V   26258.09770833 -.00026650  00000+0 -96540-3 0  2589
2 57983  43.0025   4.3413 0001815 260.5763  29.6115 15.27585731    16

Suivez STARLINK-30515 en temps réel avec AllMySat

Download on the App Store